The Dalles, WA

1:06 AM PST on December 11, 2019 (GMT -0800)
Columbia Gorge Regional-The Dalles

Weather History for KDLS - November, 2019

Change the Weather History Date:

Wednesday, November 13, 2019

  Actual Average Record
Temperature  
Mean Temperature 43 °F -  
Max Temperature 44 °F 50 °F 71 °F (1999)
Min Temperature 42 °F 36 °F 10 °F (1978)
Degree Days  
Heating Degree Days 22    
Moisture  
Dew Point 38 °F    
Average Humidity 85    
Maximum Humidity 96    
Minimum Humidity 80    
Precipitation  
Precipitation 0.00 in - - ()
Sea Level Pressure  
Sea Level Pressure 30.21 in    
Wind  
Wind Speed 6 mph (East)    
Max Wind Speed 13 mph    
Max Gust Speed -    
Visibility 6 miles    
Events      
Averages and records for this station are not official NWS values.
T = Trace of Precipitation, MM = Missing Value Source: NWS Daily Summary

Daily Weather History Graph

Daily Weather History Graph

Search for Another Location

Airport or City:

Astronomy

Nov. 13, 2019 Rise Set
Actual Time 7:01 AM PST 4:36 PM PST
Civil Twilight 6:29 AM PST 5:08 PM PST
Nautical Twilight 5:53 AM PST 5:44 PM PST
Astronomical Twilight 5:18 AM PST 6:18 PM PST
Moon 5:41 PM PST (11/13) 8:00 AM PST (11/13)
Length of Visible Light 10h 39m
Length of Day
9h 35m
Full, 98% of the Moon is Illuminated
Nov 13
Full
Nov 19
Last Quarter
Nov 26
New
Dec 3
First Quarter
Dec 11
Full

Hourly Weather History & Observations

Time (PST) Temp. Windchill Dew Point Humidity Pressure Visibility Wind Dir Wind Speed Gust Speed Precip Events Conditions
12:53 AM 42.1 °F 37.7 °F 37.9 °F 85% 30.17 in 7.0 mi NE 6.9 mph - N/A   Clear
1:09 AM 42.1 °F 38.4 °F 37.9 °F 85% 30.16 in 7.0 mi East 5.8 mph - N/A   Mostly Cloudy
1:53 AM 43.0 °F 37.7 °F 39.0 °F 86% 30.17 in 7.0 mi NE 9.2 mph - N/A   Overcast
2:06 AM 43.0 °F 37.7 °F 39.0 °F 86% 30.17 in 7.0 mi ENE 9.2 mph - N/A   Overcast
2:51 AM 42.8 °F 38.0 °F 39.2 °F 87% 30.17 in 8.0 mi ENE 8.1 mph - N/A   Overcast
2:53 AM 43.0 °F 38.8 °F 39.0 °F 86% 30.17 in 8.0 mi ENE 6.9 mph - N/A   Overcast
3:53 AM 43.0 °F 40.3 °F 39.0 °F 86% 30.17 in 7.0 mi ENE 4.6 mph - N/A   Overcast
4:12 AM 43.0 °F 38.2 °F 39.0 °F 86% 30.16 in 7.0 mi ENE 8.1 mph - N/A   Overcast
4:53 AM 44.1 °F 41.5 °F 39.9 °F 85% 30.17 in 5.0 mi East 4.6 mph - N/A   Overcast
5:34 AM 43.0 °F - 39.9 °F 89% 30.17 in 2.5 mi Calm Calm - N/A   Overcast
5:49 AM 42.8 °F - 41.0 °F 93% 30.17 in 1.8 mi Calm Calm - N/A   Overcast
5:53 AM 42.1 °F - 41.0 °F 96% 30.18 in 1.5 mi Calm Calm - N/A   Overcast
6:02 AM 42.1 °F - 41.0 °F 96% 30.17 in 1.2 mi Calm Calm - N/A   Overcast
6:53 AM 43.0 °F - 41.0 °F 93% 30.19 in 1.0 mi Calm Calm - N/A   Overcast
7:33 AM 43.0 °F 41.3 °F 41.0 °F 93% 30.20 in 3.0 mi ENE 3.5 mph - N/A   Overcast
7:53 AM 43.0 °F 41.3 °F 41.0 °F 93% 30.21 in 2.5 mi SE 3.5 mph - N/A   Overcast
8:04 AM 42.1 °F 37.1 °F 39.9 °F 92% 30.21 in 3.0 mi ENE 8.1 mph - N/A   Overcast
8:43 AM 42.1 °F 36.6 °F 39.0 °F 89% 30.22 in 4.0 mi East 9.2 mph - N/A   Overcast
8:53 AM 42.1 °F 36.1 °F 39.0 °F 89% 30.23 in 4.0 mi East 10.4 mph - N/A   Overcast
9:53 AM 43.0 °F 38.2 °F 37.0 °F 80% 30.24 in 6.0 mi East 8.1 mph - N/A   Haze
10:02 AM 43.0 °F 38.8 °F 37.0 °F 80% 30.23 in 6.0 mi East 6.9 mph - N/A   Haze
10:22 AM 43.0 °F 37.7 °F 37.0 °F 80% 30.23 in 7.0 mi East 9.2 mph - N/A   Overcast
10:44 AM 43.0 °F 36.4 °F 37.0 °F 80% 30.23 in 5.0 mi East 12.7 mph - N/A   Haze
10:53 AM 43.0 °F 37.2 °F 37.0 °F 80% 30.24 in 5.0 mi East 10.4 mph - N/A   Haze
11:15 AM 43.0 °F 40.3 °F 37.9 °F 82% 30.23 in 5.0 mi SE 4.6 mph - N/A   Haze
11:53 AM 43.0 °F 37.7 °F 37.0 °F 80% 30.22 in 7.0 mi East 9.2 mph - N/A   Overcast
12:45 PM 43.0 °F 38.2 °F 37.0 °F 80% 30.20 in 6.0 mi East 8.1 mph - N/A   Haze
12:53 PM 43.0 °F 37.7 °F 37.0 °F 80% 30.21 in 6.0 mi East 9.2 mph - N/A   Haze
1:53 PM 43.0 °F 38.2 °F 37.0 °F 80% 30.20 in 8.0 mi ENE 8.1 mph - N/A   Overcast
2:53 PM 43.0 °F 38.8 °F 37.9 °F 82% 30.21 in 8.0 mi ENE 6.9 mph - N/A   Overcast
3:30 PM 43.0 °F 38.2 °F 37.9 °F 82% 30.20 in 8.0 mi ENE 8.1 mph - N/A   Overcast
3:46 PM 43.0 °F 38.8 °F 37.9 °F 82% 30.21 in 8.0 mi ENE 6.9 mph - N/A   Overcast
3:53 PM 43.0 °F 38.2 °F 37.9 °F 82% 30.22 in 8.0 mi ENE 8.1 mph - N/A   Overcast
4:53 PM 43.0 °F 36.8 °F 37.0 °F 80% 30.22 in 9.0 mi East 11.5 mph - N/A   Overcast
5:53 PM 43.0 °F 40.3 °F 37.0 °F 80% 30.23 in 7.0 mi East 4.6 mph - N/A   Overcast
6:25 PM 43.0 °F 39.5 °F 37.0 °F 80% 30.22 in 7.0 mi East 5.8 mph - N/A   Overcast
6:53 PM 43.0 °F 38.2 °F 37.0 °F 80% 30.23 in 7.0 mi ENE 8.1 mph - N/A   Overcast
7:53 PM 43.0 °F 41.3 °F 37.9 °F 82% 30.22 in 7.0 mi ENE 3.5 mph - N/A   Overcast
8:37 PM 43.0 °F 41.3 °F 37.9 °F 82% 30.22 in 7.0 mi SE 3.5 mph - N/A   Overcast
8:53 PM 43.0 °F - 37.9 °F 82% 30.24 in 6.0 mi Calm Calm - N/A   Haze
9:07 PM 43.0 °F - 37.9 °F 82% 30.23 in 6.0 mi Calm Calm - N/A   Haze
9:41 PM 43.0 °F 41.3 °F 37.9 °F 82% 30.23 in 5.0 mi SSE 3.5 mph - N/A   Haze
9:53 PM 42.1 °F 40.2 °F 39.0 °F 89% 30.24 in 5.0 mi South 3.5 mph - N/A   Overcast
10:53 PM 42.1 °F - 39.0 °F 89% 30.24 in 5.0 mi Calm Calm - N/A   Overcast
11:07 PM 42.1 °F - 39.0 °F 89% 30.23 in 5.0 mi Calm Calm - N/A   Overcast
11:53 PM 42.1 °F - 39.0 °F 89% 30.24 in 5.0 mi Calm Calm - N/A   Overcast